This is the latest recevied weather packets stored in our database for station/object DN9EM-2. If no packets are shown the sender has not sent any weather packets the latest 10 day(s).
| Time | Temp. | Humidity | Pressure | Rain* | Wind** | Luminosity | Snow |
|---|---|---|---|---|---|---|---|
| 1777869028 | 10.56° C | 89% | 1012.6 hPa | 0 mm | - | - | - |
| 1777868426 | 10.56° C | 89% | 1012.4 hPa | 0 mm | - | - | - |
| 1777867823 | 10.56° C | 89% | 1012.5 hPa | 0 mm | - | - | - |
| 1777867221 | 10.56° C | 88% | 1012.3 hPa | 0 mm | - | - | - |
| 1777866618 | 10.56° C | 89% | 1012.4 hPa | 0 mm | - | - | - |
| 1777866015 | 11.11° C | 89% | 1012.2 hPa | 0 mm | - | - | - |
| 1777865473 | 11.11° C | 89% | 1012.1 hPa | 0 mm | - | - | - |
| 1777864870 | 11.67° C | 90% | 1012.2 hPa | 0 mm | - | - | - |
| 1777864268 | 12.22° C | 89% | 1012 hPa | 0 mm | - | - | - |
| 1777863665 | 12.78° C | 89% | 1011.9 hPa | 0 mm | - | - | - |
| 1777863063 | 12.78° C | 89% | 1011.7 hPa | 0 mm | - | - | - |
| 1777862460 | 12.78° C | 89% | 1011.6 hPa | 0 mm | - | - | - |
| 1777861857 | 13.33° C | 89% | 1011.6 hPa | 0 mm | - | - | - |
| 1777861255 | 13.33° C | 89% | 1011.4 hPa | 0 mm | - | - | - |
| 1777860652 | 13.89° C | 90% | 1011.4 hPa | 0 mm | - | - | - |
| 1777860050 | 13.89° C | 91% | 1011.1 hPa | 0 mm | - | - | - |
| 1777859447 | 13.89° C | 91% | 1011 hPa | 0 mm | - | - | - |
| 1777858844 | 14.44° C | 91% | 1010.9 hPa | 0 mm | - | - | - |
| 1777858242 | 14.44° C | 91% | 1011 hPa | 0 mm | - | - | - |
| 1777857639 | 14.44° C | 91% | 1011.1 hPa | 0 mm | - | - | - |
| 1777857037 | 14.44° C | 91% | 1011.1 hPa | 0 mm | - | - | - |
| 1777856434 | 14.44° C | 91% | 1011 hPa | 0 mm | - | - | - |
| 1777855831 | 14.44° C | 91% | 1010.9 hPa | 0 mm | - | - | - |
| 1777855229 | 13.89° C | 91% | 1010.9 hPa | 0 mm | - | - | - |
| 1777854626 | 13.89° C | 91% | 1010.8 hPa | 0 mm | - | - | - |
* Rain latest hour (hover to see other rain measurements)
** Current wind speed in m/s (hover to see current wind gust speed)